FW2710 Weather Reports


time (UTC)temp
C
wind
direction
speed
KPH
gust
KPH
rain 1hr
cm
rain 24hr
cm
rain mn
cm
humidity
%
barometer
mb
20260906022528 23 0 0.0 0.0 0.00 0.00 0.00 85 1015.9
20260906022025 23 0 0.0 0.0 0.00 0.00 0.00 85 1015.8
20260906021545 23 0 0.0 4.8 0.00 0.00 0.00 85 1015.7
20260906021025 23 0 0.0 4.8 0.00 0.00 0.00 85 1015.7
20260906020526 23 0 0.0 0.0 0.00 0.00 0.00 85 1015.6
20260906020057 24 0 0.0 6.4 0.00 0.00 0.00 84 1015.5
20260906015524 24 0 0.0 9.7 0.00 0.00 0.00 84 1015.4
20260906015023 24 0 0.0 9.7 0.00 0.00 0.00 84 1015.4
20260906014546 24 0 0.0 6.4 0.00 0.00 0.00 84 1015.3
20260906014025 24 0 0.0 1.6 0.00 0.00 0.00 83 1015.3
20260906013525 25 0 0.0 1.6 0.00 0.00 0.00 83 1015.3
20260906013048 25 0 0.0 9.7 0.00 0.00 0.00 82 1015.2
20260906012526 25 0 0.0 9.7 0.00 0.00 0.00 82 1015.0
20260906012024 25 0 0.0 9.7 0.00 0.00 0.00 82 1015.1
20260906011550 25 0 0.0 12.9 0.00 0.00 0.00 81 1015.1
20260906011024 25 0 0.0 12.9 0.00 0.00 0.00 81 1015.1
20260906010528 25 0 0.0 9.7 0.00 0.00 0.00 81 1014.9
20260906010047 26 0 0.0 1.6 0.00 0.00 0.00 80 1014.9
20260906005524 26 0 0.0 4.8 0.00 0.00 0.00 80 1014.9
20260906005027 26 0 0.0 9.7 0.00 0.00 0.00 80 1014.7
20260906004553 26 0 0.0 9.7 0.00 0.00 0.00 79 1014.8
20260906004027 26 286 0.0 9.7 0.00 0.00 0.00 79 1014.8
20260906003524 26 0 0.0 9.7 0.00 0.00 0.00 79 1014.7
20260906003049 27 0 0.0 9.7 0.00 0.00 0.00 78 1014.7
20260906002524 27 0 0.0 9.7 0.00 0.00 0.00 77 1014.6
20260906002025 27 0 0.0 11.3 0.00 0.00 0.00 77 1014.7
20260906001548 27 0 0.0 11.3 0.00 0.00 0.00 76 1014.7
20260906001025 27 0 0.0 16.1 0.00 0.00 0.00 76 1014.7
20260906000526 28 0 0.0 16.1 0.00 0.00 0.00 75 1014.6
20260906000046 28 0 0.0 11.3 0.00 0.00 0.00 75 1014.4
20260905235526 28 0 0.0 11.3 0.00 0.00 0.00 75 1014.4
20260905235028 28 0 0.0 4.8 0.00 0.00 0.00 74 1014.3
20260905234553 28 0 0.0 6.4 0.00 0.00 0.00 73 1014.3
20260905234024 29 0 0.0 6.4 0.00 0.00 0.00 73 1014.3
20260905233524 29 0 0.0 6.4 0.00 0.00 0.00 72 1014.2
20260905233049 29 0 0.0 6.4 0.00 0.00 0.00 72 1014.2
20260905232525 30 0 0.0 16.1 0.00 0.00 0.00 72 1014.2
20260905232024 30 0 0.0 16.1 0.00 0.00 0.00 72 1014.3
20260905231546 30 0 0.0 14.5 0.00 0.00 0.00 70 1014.3
20260905231025 30 0 0.0 14.5 0.00 0.00 0.00 69 1014.2
20260905230525 30 286 0.0 6.4 0.00 0.00 0.00 70 1014.1
20260905230054 31 0 0.0 12.9 0.00 0.00 0.00 69 1014.1
20260905225523 31 0 0.0 12.9 0.00 0.00 0.00 69 1014.1
20260905225023 31 0 0.0 12.9 0.00 0.00 0.00 68 1014.0
20260905224601 31 0 0.0 11.3 0.00 0.00 0.00 68 1014.0
20260905224026 31 0 0.0 0.0 0.00 0.00 0.00 68 1014.0
20260905223525 31 0 0.0 0.0 0.00 0.00 0.00 67 1014.0
20260905223053 31 0 0.0 4.8 0.00 0.00 0.00 68 1014.0
20260905222524 32 0 0.0 4.8 0.00 0.00 0.00 66 1014.1
20260905222023 32 0 0.0 0.0 0.00 0.00 0.00 67 1014.1
20260905221556 32 0 0.0 9.7 0.00 0.00 0.00 66 1014.1
20260905221033 32 0 0.0 9.7 0.00 0.00 0.00 66 1014.0
20260905220525 32 0 0.0 6.4 0.00 0.00 0.00 66 1013.9
20260905220100 32 0 0.0 6.4 0.00 0.00 0.00 64 1014.0
20260905215525 32 0 0.0 6.4 0.00 0.00 0.00 63 1014.0
20260905215023 32 0 0.0 6.4 0.00 0.00 0.00 64 1014.0
20260905214549 32 0 0.0 9.7 0.00 0.00 0.00 64 1014.0
20260905214025 32 0 0.0 9.7 0.00 0.00 0.00 63 1013.9
20260905213526 32 0 0.0 9.7 0.00 0.00 0.00 63 1013.9
20260905213050 32 0 0.0 9.7 0.00 0.00 0.00 62 1013.9
20260905212527 33 0 0.0 11.3 0.00 0.00 0.00 62 1013.9
20260905212025 33 0 0.0 11.3 0.00 0.00 0.00 62 1013.9
20260905211603 33 0 0.0 4.8 0.00 0.00 0.00 62 1013.9
20260905211026 33 0 0.0 4.8 0.00 0.00 0.00 64 1013.8
20260905210526 32 0 0.0 4.8 0.00 0.00 0.00 64 1013.8
20260905210056 33 0 0.0 1.6 0.00 0.00 0.00 64 1013.9
20260905205523 33 0 0.0 6.4 0.00 0.00 0.00 63 1014.0
20260905205024 33 0 0.0 6.4 0.00 0.00 0.00 62 1014.0
20260905204555 33 0 0.0 3.2 0.00 0.00 0.00 64 1014.0
20260905204025 33 0 0.0 1.6 0.00 0.00 0.00 63 1014.1
20260905203526 33 0 0.0 0.0 0.00 0.00 0.00 64 1014.0
20260905203111 33 0 0.0 0.0 0.00 0.00 0.00 63 1014.1
20260905202525 33 0 0.0 6.4 0.00 0.00 0.00 64 1014.1
20260905202025 33 0 0.0 6.4 0.00 0.00 0.00 63 1014.0
20260905201547 33 287 0.0 6.4 0.00 0.00 0.00 63 1014.1
20260905201026 32 0 0.0 4.8 0.00 0.00 0.00 64 1014.0
20260905200528 33 0 0.0 14.5 0.00 0.00 0.00 64 1014.1
20260905200054 33 0 0.0 14.5 0.00 0.00 0.00 63 1014.2
20260905195527 33 0 0.0 6.4 0.00 0.00 0.00 64 1014.1
20260905195027 32 0 0.0 3.2 0.00 0.00 0.00 65 1014.2
20260905194551 33 0 0.0 3.2 0.00 0.00 0.00 64 1014.1
20260905194028 33 0 0.0 0.0 0.00 0.00 0.00 63 1014.2
20260905193527 33 0 0.0 0.0 0.00 0.00 0.00 62 1014.2
20260905193048 33 0 0.0 0.0 0.00 0.00 0.00 63 1014.1
20260905192523 33 0 0.0 0.0 0.00 0.00 0.00 63 1014.2
20260905192027 33 0 0.0 4.8 0.00 0.00 0.00 63 1014.2
20260905191546 33 0 0.0 4.8 0.00 0.00 0.00 63 1014.2
20260905191028 33 0 0.0 6.4 0.00 0.00 0.00 64 1014.3
20260905190525 32 0 0.0 6.4 0.00 0.00 0.00 66 1014.4
20260905190047 32 0 0.0 0.0 0.00 0.00 0.00 66 1014.4
20260905185526 32 0 0.0 0.0 0.00 0.00 0.00 66 1014.4
20260905185024 32 0 0.0 0.0 0.00 0.00 0.00 66 1014.4
20260905184600 32 0 0.0 0.0 0.00 0.00 0.00 66 1014.5
20260905184023 33 0 0.0 3.2 0.00 0.00 0.00 65 1014.6
20260905183524 33 0 0.0 3.2 0.00 0.00 0.00 65 1014.6
20260905183050 33 0 0.0 4.8 0.00 0.00 0.00 63 1014.6
20260905182526 33 0 0.0 4.8 0.00 0.00 0.00 65 1014.7
20260905182025 32 0 0.0 3.2 0.00 0.00 0.00 66 1014.7
20260905181605 32 0 0.0 3.2 0.00 0.00 0.00 65 1014.7
20260905181023 33 0 0.0 0.0 0.00 0.00 0.00 65 1014.7
20260905180526 33 0 0.0 0.0 0.00 0.00 0.00 66 1014.7
20260905180051 33 0 0.0 0.0 0.00 0.00 0.00 65 1014.7
20260905175525 33 0 0.0 0.0 0.00 0.00 0.00 66 1014.8
20260905175025 32 0 0.0 0.0 0.00 0.00 0.00 65 1014.8
20260905174552 32 0 0.0 0.0 0.00 0.00 0.00 66 1014.8
20260905174028 32 0 0.0 0.0 0.00 0.00 0.00 66 1014.9
20260905173524 32 0 0.0 3.2 0.00 0.00 0.00 68 1014.9
20260905173041 32 0 0.0 3.2 0.00 0.00 0.00 67 1014.8
20260905172524 32 0 0.0 1.6 0.00 0.00 0.00 66 1014.8
20260905172024 32 0 0.0 0.0 0.00 0.00 0.00 66 1014.8
20260905171549 32 0 0.0 0.0 0.00 0.00 0.00 67 1015.0
20260905171026 32 0 0.0 0.0 0.00 0.00 0.00 67 1015.0
20260905170527 32 0 0.0 0.0 0.00 0.00 0.00 68 1015.0
20260905170046 32 0 0.0 0.0 0.00 0.00 0.00 69 1015.1
20260905165531 32 0 0.0 6.4 0.00 0.00 0.00 68 1015.1
20260905165027 31 0 0.0 6.4 0.00 0.00 0.00 70 1015.3
20260905164546 31 0 0.0 4.8 0.00 0.00 0.00 68 1015.4
20260905164028 32 0 0.0 0.0 0.00 0.00 0.00 69 1015.3
20260905163525 31 0 0.0 0.0 0.00 0.00 0.00 70 1015.4
20260905163050 31 0 0.0 0.0 0.00 0.00 0.00 70 1015.4
20260905162527 31 0 0.0 1.6 0.00 0.00 0.00 70 1015.4
20260905162028 31 0 0.0 1.6 0.00 0.00 0.00 69 1015.3
20260905161547 31 0 0.0 0.0 0.00 0.00 0.00 69 1015.3
20260905161027 31 0 0.0 0.0 0.00 0.00 0.00 69 1015.3
20260905160526 31 0 0.0 0.0 0.00 0.00 0.00 69 1015.3
20260905160114 31 0 0.0 0.0 0.00 0.00 0.00 69 1015.2
20260905155528 31 0 0.0 0.0 0.00 0.00 0.00 67 1015.3
20260905155027 31 0 0.0 0.0 0.00 0.00 0.00 68 1015.1
20260905154551 31 0 0.0 0.0 0.00 0.00 0.00 67 1015.0
20260905154028 31 0 0.0 0.0 0.00 0.00 0.00 68 1015.0
20260905153528 31 0 0.0 0.0 0.00 0.00 0.00 67 1015.1
20260905153047 31 0 0.0 0.0 0.00 0.00 0.00 68 1015.1
20260905152527 31 0 0.0 0.0 0.00 0.00 0.00 66 1015.0
20260905152026 31 0 0.0 0.0 0.00 0.00 0.00 70 1014.9
20260905151546 31 0 0.0 0.0 0.00 0.00 0.00 70 1015.0
20260905151026 31 0 0.0 0.0 0.00 0.00 0.00 69 1015.0
20260905150529 31 0 0.0 0.0 0.00 0.00 0.00 69 1015.0
20260905150055 31 0 0.0 0.0 0.00 0.00 0.00 71 1015.0
20260905145527 31 0 0.0 0.0 0.00 0.00 0.00 71 1014.9
20260905145029 30 0 0.0 0.0 0.00 0.00 0.00 71 1014.9
20260905144549 30 0 0.0 0.0 0.00 0.00 0.00 73 1014.9
20260905144031 30 0 0.0 0.0 0.00 0.00 0.00 75 1014.8
20260905143529 30 0 0.0 0.0 0.00 0.00 0.00 75 1014.7
20260905143048 29 0 0.0 0.0 0.00 0.00 0.00 76 1014.6
20260905142526 28 0 0.0 0.0 0.00 0.00 0.00 78 1014.6
20260905142024 28 0 0.0 0.0 0.00 0.00 0.00 78 1014.5
20260905141550 28 0 0.0 0.0 0.00 0.00 0.00 80 1014.5
20260905141027 28 0 0.0 0.0 0.00 0.00 0.00 81 1014.5
20260905140530 27 0 0.0 0.0 0.00 0.00 0.00 82 1014.5
20260905140049 27 0 0.0 0.0 0.00 0.00 0.00 83 1014.6
20260905135526 27 0 0.0 0.0 0.00 0.00 0.00 83 1014.5
20260905135025 27 0 0.0 0.0 0.00 0.00 0.00 84 1014.6
20260905134545 26 0 0.0 0.0 0.00 0.00 0.00 85 1014.8
20260905134026 26 0 0.0 0.0 0.00 0.00 0.00 86 1014.9
20260905133527 26 0 0.0 0.0 0.00 0.00 0.00 87 1014.9
20260905133052 26 0 0.0 0.0 0.00 0.00 0.00 87 1014.9
20260905132525 26 0 0.0 0.0 0.00 0.00 0.00 88 1014.9
20260905132025 25 0 0.0 0.0 0.00 0.00 0.00 90 1014.8
20260905131549 25 0 0.0 0.0 0.00 0.00 0.00 90 1014.8
20260905131024 25 0 0.0 0.0 0.00 0.00 0.00 91 1014.7
20260905130526 25 0 0.0 0.0 0.00 0.00 0.00 92 1014.5
20260905130046 25 0 0.0 0.0 0.00 0.00 0.00 92 1014.4
20260905125528 24 0 0.0 0.0 0.00 0.00 0.00 92 1014.4
20260905125025 24 0 0.0 0.0 0.00 0.00 0.00 93 1014.5
20260905124545 24 0 0.0 0.0 0.00 0.00 0.00 92 1014.5
20260905124025 24 0 0.0 0.0 0.00 0.00 0.00 92 1014.4
20260905123525 23 0 0.0 0.0 0.00 0.00 0.00 92 1014.3
20260905123043 23 0 0.0 0.0 0.00 0.00 0.00 92 1014.3
20260905122524 23 0 0.0 0.0 0.00 0.00 0.00 92 1014.3
20260905122024 23 0 0.0 0.0 0.00 0.00 0.00 92 1014.3
20260905121547 23 0 0.0 0.0 0.00 0.00 0.00 92 1014.3
20260905121024 23 0 0.0 0.0 0.00 0.00 0.00 92 1014.1
20260905120523 23 0 0.0 0.0 0.00 0.00 0.00 91 1014.2
20260905120055 23 0 0.0 0.0 0.00 0.00 0.00 91 1014.1
20260905115524 23 0 0.0 0.0 0.00 0.00 0.00 91 1014.1
20260905115029 23 0 0.0 0.0 0.00 0.00 0.00 91 1014.0
20260905114542 23 0 0.0 0.0 0.00 0.00 0.00 91 1014.0
20260905114023 23 0 0.0 0.0 0.00 0.00 0.00 91 1014.0
20260905113524 23 0 0.0 0.0 0.00 0.00 0.00 91 1013.9
20260905113048 23 0 0.0 0.0 0.00 0.00 0.00 91 1013.9
20260905112526 23 0 0.0 0.0 0.00 0.00 0.00 91 1014.0
20260905112023 23 0 0.0 0.0 0.00 0.00 0.00 91 1013.9
20260905111558 23 0 0.0 0.0 0.00 0.00 0.00 91 1013.7
20260905111025 23 0 0.0 0.0 0.00 0.00 0.00 91 1013.7
20260905110527 23 0 0.0 0.0 0.00 0.00 0.00 91 1013.7
20260905110044 23 0 0.0 0.0 0.00 0.00 0.00 91 1013.8
20260905105525 23 0 0.0 0.0 0.00 0.00 0.00 90 1013.6
20260905105025 23 0 0.0 0.0 0.00 0.00 0.00 90 1013.7
20260905104550 23 0 0.0 0.0 0.00 0.00 0.00 90 1013.9
20260905104028 23 0 0.0 0.0 0.00 0.00 0.00 90 1013.8
20260905103527 23 0 0.0 0.0 0.00 0.00 0.00 90 1013.8
20260905103052 23 0 0.0 0.0 0.00 0.00 0.00 90 1013.8
20260905102526 23 0 0.0 0.0 0.00 0.00 0.00 90 1013.7
20260905102027 23 0 0.0 0.0 0.00 0.00 0.00 91 1013.7
20260905101547 23 0 0.0 0.0 0.00 0.00 0.00 91 1013.7
20260905101026 23 0 0.0 0.0 0.00 0.00 0.00 91 1013.7
20260905100526 23 0 0.0 0.0 0.00 0.00 0.00 91 1013.9
20260905100047 23 0 0.0 0.0 0.00 0.00 0.00 91 1013.9
20260905095526 23 0 0.0 0.0 0.00 0.00 0.00 91 1013.9
20260905095026 23 0 0.0 0.0 0.00 0.00 0.00 90 1013.9
20260905094542 23 0 0.0 0.0 0.00 0.00 0.00 91 1014.0
20260905094024 23 0 0.0 0.0 0.00 0.00 0.00 91 1014.0
20260905093531 23 0 0.0 0.0 0.00 0.00 0.00 91 1013.9
20260905093047 23 0 0.0 0.0 0.00 0.00 0.00 91 1014.0
20260905092527 23 0 0.0 0.0 0.00 0.00 0.00 91 1014.0
20260905092026 23 0 0.0 0.0 0.00 0.00 0.00 91 1013.9
20260905091614 23 0 0.0 0.0 0.00 0.00 0.00 90 1013.8
20260905091033 23 0 0.0 0.0 0.00 0.00 0.00 90 1013.9
20260905090526 24 0 0.0 0.0 0.00 0.00 0.00 90 1014.0
20260905090106 24 0 0.0 0.0 0.00 0.00 0.00 90 1014.0
20260905085527 24 0 0.0 0.0 0.00 0.00 0.00 90 1014.0
20260905085027 24 0 0.0 0.0 0.00 0.00 0.00 90 1014.1
20260905084550 24 0 0.0 0.0 0.00 0.00 0.00 90 1014.1
20260905084023 24 0 0.0 0.0 0.00 0.00 0.00 90 1014.0
20260905083523 24 0 0.0 0.0 0.00 0.00 0.00 90 1014.0
20260905083046 24 0 0.0 0.0 0.00 0.00 0.00 90 1013.9
20260905082526 24 0 0.0 0.0 0.00 0.00 0.00 90 1014.0
20260905082026 24 0 0.0 0.0 0.00 0.00 0.00 90 1014.0
20260905081542 24 0 0.0 0.0 0.00 0.00 0.00 90 1013.9
20260905081026 24 0 0.0 0.0 0.00 0.00 0.00 91 1014.0
20260905080526 24 0 0.0 0.0 0.00 0.00 0.00 91 1014.0
20260905080055 24 0 0.0 0.0 0.00 0.00 0.00 91 1014.0
20260905075523 24 0 0.0 0.0 0.00 0.00 0.00 91 1014.1
20260905075028 24 0 0.0 0.0 0.00 0.00 0.00 90 1014.1
20260905074547 24 0 0.0 0.0 0.00 0.00 0.00 90 1014.1
20260905074030 24 0 0.0 0.0 0.00 0.00 0.00 90 1014.1
20260905073525 24 0 0.0 0.0 0.00 0.00 0.00 90 1014.1
20260905073102 24 0 0.0 0.0 0.00 0.00 0.00 90 1014.1
20260905072527 24 0 0.0 0.0 0.00 0.00 0.00 90 1014.1
20260905072026 24 0 0.0 0.0 0.00 0.00 0.00 90 1014.2
20260905071546 24 0 0.0 0.0 0.00 0.00 0.00 90 1014.2
20260905071029 24 0 0.0 0.0 0.00 0.00 0.00 90 1014.2
20260905070527 24 0 0.0 0.0 0.00 0.00 0.00 90 1014.3
20260905070046 24 0 0.0 0.0 0.00 0.00 0.00 90 1014.3
20260905065529 24 0 0.0 0.0 0.00 0.00 0.00 90 1014.3
20260905065024 25 0 0.0 0.0 0.00 0.00 0.00 90 1014.2
20260905064548 25 0 0.0 0.0 0.00 0.00 0.00 89 1014.3
20260905064027 25 0 0.0 0.0 0.00 0.00 0.00 89 1014.3
20260905063526 25 0 0.0 0.0 0.00 0.00 0.00 89 1014.4
20260905063047 25 0 0.0 0.0 0.00 0.00 0.00 88 1014.4
20260905062527 25 0 0.0 0.0 0.00 0.00 0.00 88 1014.4
20260905062028 25 0 0.0 0.0 0.00 0.00 0.00 87 1014.4
20260905061611 25 0 0.0 0.0 0.00 0.00 0.00 87 1014.4
20260905061026 25 0 0.0 0.0 0.00 0.00 0.00 87 1014.3
20260905060528 25 0 0.0 0.0 0.00 0.00 0.00 88 1014.4
20260905060051 25 0 0.0 0.0 0.00 0.00 0.00 88 1014.5
20260905055529 25 0 0.0 0.0 0.00 0.00 0.00 88 1014.5
20260905055030 25 0 0.0 0.0 0.00 0.00 0.00 88 1014.6
20260905054549 25 0 0.0 0.0 0.00 0.00 0.00 88 1014.6
20260905054028 25 0 0.0 0.0 0.00 0.00 0.00 88 1014.6
20260905053526 25 0 0.0 0.0 0.00 0.00 0.00 88 1014.7
20260905053052 25 0 0.0 0.0 0.00 0.00 0.00 88 1014.7
20260905052527 25 0 0.0 0.0 0.00 0.00 0.00 88 1014.7
20260905052026 25 0 0.0 0.0 0.00 0.00 0.00 87 1014.6
20260905051545 25 0 0.0 0.0 0.00 0.00 0.00 87 1014.6
20260905051026 25 0 0.0 0.0 0.00 0.00 0.00 86 1014.5
20260905050526 25 0 0.0 0.0 0.00 0.00 0.00 86 1014.5
20260905050047 25 0 0.0 0.0 0.00 0.00 0.00 85 1014.6
20260905045530 26 0 0.0 0.0 0.00 0.00 0.00 85 1014.7
20260905045026 26 0 0.0 0.0 0.00 0.00 0.00 85 1014.6
20260905044550 26 0 0.0 0.0 0.00 0.00 0.00 85 1014.5
20260905044023 26 0 0.0 0.0 0.00 0.00 0.00 85 1014.5
20260905043526 26 0 0.0 0.0 0.00 0.00 0.00 85 1014.7
20260905043048 26 0 0.0 0.0 0.00 0.00 0.00 84 1014.7
20260905042525 26 0 0.0 0.0 0.00 0.00 0.00 84 1014.6
20260905042027 26 0 0.0 0.0 0.00 0.00 0.00 84 1014.7
20260905041550 26 0 0.0 0.0 0.00 0.00 0.00 84 1014.7
20260905041031 26 0 0.0 0.0 0.00 0.00 0.00 84 1014.7
20260905040526 26 0 0.0 0.0 0.00 0.00 0.00 85 1014.6
20260905040049 26 0 0.0 0.0 0.00 0.00 0.00 84 1014.5
20260905035525 26 0 0.0 0.0 0.00 0.00 0.00 84 1014.5
20260905035028 26 0 0.0 0.0 0.00 0.00 0.00 85 1014.6
20260905034554 26 0 0.0 0.0 0.00 0.00 0.00 85 1014.7
20260905034025 26 0 0.0 0.0 0.00 0.00 0.00 85 1014.6
20260905033526 26 0 0.0 0.0 0.00 0.00 0.00 85 1014.5
20260905033045 26 0 0.0 0.0 0.00 0.00 0.00 85 1014.5
20260905032529 26 0 0.0 0.0 0.00 0.00 0.00 85 1014.7
20260905032026 26 0 0.0 0.0 0.00 0.00 0.00 86 1014.7
20260905031554 26 0 0.0 0.0 0.00 0.00 0.00 86 1014.7
20260905031026 26 0 0.0 0.0 0.00 0.00 0.00 85 1014.6
20260905030527 26 0 0.0 0.0 0.00 0.00 0.00 85 1014.6
20260905030047 26 0 0.0 0.0 0.00 0.00 0.00 85 1014.7
20260905025526 26 0 0.0 0.0 0.00 0.00 0.00 85 1014.6
20260905025027 26 0 0.0 0.0 0.00 0.00 0.00 84 1014.6
20260905024548 26 0 0.0 0.0 0.00 0.00 0.00 83 1014.5
20260905024027 27 0 0.0 0.0 0.00 0.00 0.00 82 1014.5
20260905023527 27 0 0.0 0.0 0.00 0.00 0.00 82 1014.6
20260905023046 27 0 0.0 0.0 0.00 0.00 0.00 82 1014.5